Location: Felsheim
(48.7267°N, 10.7386°E)
Time: 13:51:30
(UTC+00:00)

ERBS - Pass Details

Date: 09 April 2020
Orbit: 410 x 426 km, 57.0° (Epoch: 25 May)

Event Time Altitude Azimuth Distance (km) Brightness Sun altitude
Rises 18:33:14 0° 305° (NW) 2,391 7.9 -6.0°
Reaches altitude 10° 18:35:29 10° 316° (NW) 1,525 6.3 -6.4°
Maximum altitude 18:38:35 32° 21° (NNE) 766 3.6 -6.9°
Drops below altitude 10° 18:41:41 10° 87° (E) 1,523 4.5 -7.4°
Enters shadow 18:42:00 - 89° (E) 1,644 4.7 -7.4°
